﻿_id,Time,Row.2.1,Row.2.2,Row.2.3,Row.2.4,Row.2.5,Row.2.6,Row.2.7,Row.2.8,Row.2.9,Row.2.10,Row.2.11,Row.2.12,Row.2.13,Row.2.14,Row.2.15,Row.2.16,Row.2.17,Row.2.18,Row.2.19,Row.2.20,Row.9.1,Row.9.2,Row.9.3,Row.9.4,Row.9.5,Row.9.6,Row.9.7,Row.9.8,Row.9.9,Row.9.10,Row.9.11,Row.9.12,Row.9.13,Row.9.14,Row.9.15,Row.9.16,Row.9.17,Row.9.18,Row.9.19,Row.9.20
1,2019-12-28T08:00:00,2.9815,8.5941,4.5985,8.2833,0,6.3870000000000005,9.8039,4.9367,8.7375,5.4426,6.8198,1.9946,10.0942,7.2508,9.2894,1.0823,5.5128,5.7826,10.7758,6.2982,9.8588,14.2084,7.2047,13.7901,10.9435,5.3124,12.3752,12.2153,12.1013,10.3803,7.5551,6.6388,13.4236,9.8449,11.8589,13.7402,16.2383,14.8635,10.5838,7.7228
2,2019-12-28T09:00:00,15.7228,21.9915,15.1249,19.0956,0,17.2425,21.8795,21.2003,21.0561,15.8479,18.8354,16.6535,21.5382,22.67,21.987,18.7852,16.4778,22.0536,28.6697,17.5885,24.9498,32.9205,24.6441,29.9874,28.7948,22.8487,26.8528,26.8776,30.8378,27.9352,25.3337,25.6815,29.2677,29.8385,32.0769,30.863000000000003,34.722,29.2494,30.0698,30.473000000000003
3,2019-12-28T10:00:00,76.2423,84.13799999999999,62.5162,75.837,0,86.5185,89.9829,86.4153,89.6419,71.3032,68.9341,70.8604,68.7868,88.4316,87.2975,67.1378,88.3343,93.7227,85.6988,89.8318,59.4356,73.2408,79.9303,72.5831,63.1987,70.2293,82.0413,75.5587,73.1568,66.6244,63.8367,66.7805,84.7669,74.531,86.8702,78.2519,75.1606,93.5249,84.93299999999999,84.8342
4,2019-12-28T11:00:00,71.367,73.7081,65.5541,71.3125,0,78.1677,80.1229,71.1566,75.7124,72.0362,68.4531,75.1415,75.3924,83.868,79.0191,64.3453,68.6887,75.3432,79.7476,76.51899999999999,61.9327,77.9495,79.91199999999999,80.3536,66.4616,74.8324,80.0996,92.1405,74.2766,74.1195,80.9593,77.0748,85.9384,73.3648,85.2081,81.0955,76.87,84.8544,87.7735,80.7856
5,2019-12-28T12:00:00,40.5853,52.571999999999996,41.7953,39.5142,0,37.8465,55.9525,47.8339,43.9903,32.0019,41.2668,48.562,45.0504,43.481,53.268,34.8325,36.1041,52.226000000000006,43.4339,45.8158,58.0718,68.9495,66.5086,71.0504,63.8656,66.1615,70.3606,75.8601,72.2876,65.0583,71.5462,67.0169,76.3722,61.1349,69.6722,65.4285,76.4929,73.877,73.0734,63.5643
6,2019-12-28T13:00:00,35.2323,49.611999999999995,42.3255,30.1055,0,31.2102,53.8421,44.2826,42.9004,26.2001,34.195,44.255,43.1735,37.6715,50.4998,26.7475,30.1463,42.4274,42.5138,44.2968,66.3535,78.0456,72.755,75.7621,68.4709,68.9048,72.0675,78.7016,72.9575,58.7525,74.7291,64.0233,76.6305,58.5018,74.5971,67.9153,87.9845,76.1491,70.3517,68.6688
7,2019-12-28T14:00:00,14.6302,29.2683,25.0751,20.9276,0,18.1729,33.5962,25.6659,27.4633,16.3795,20.6017,21.6416,32.4208,20.7535,32.8791,12.3846,22.249000000000002,23.8222,30.2114,30.1824,39.9023,49.7514,44.2388,49.1999,40.5948,41.82899999999999,47.0185,51.3267,49.6941,41.7402,44.4941,43.6756,53.6143,42.5006,49.034,47.9415,54.4157,48.56100000000001,46.7576,44.3199
8,2019-12-28T15:00:00,13.2507,18.8828,12.083,12.7383,0,13.2297,20.6687,16.6319,20.1964,8.7197,11.4878,17.8276,18.2464,18.2202,22.6868,10.2504,11.8755,14.5667,20.9034,16.4447,26.0828,33.325,28.5376,32.0613,27.2132,23.5049,30.1069,34.4562,33.3701,29.8209,25.8502,26.8268,35.6743,27.4952,36.0355,31.5588,34.7589,31.7163,28.6359,28.2626
9,2019-12-29T07:00:00,9.8961,21.7203,14.1986,12.8447,0,12.9469,22.9216,16.0821,17.737000000000002,10.0186,16.9984,8.6333,21.8203,13.739,23.9357,5.2681,12.6767,15.1216,23.4355,19.2248,22.0604,31.3751,10.4111,36.3589,32.1748,21.0708,28.8377,37.3675,30.3755,22.3847,24.7568,32.3197,27.3403,29.726999999999997,42.3492,44.1091,38.0278,36.9869,18.0504,33.3458
10,2019-12-29T08:00:00,56.4337,55.2345,44.8702,39.8577,0,38.9732,62.2375,65.6615,63.5705,36.1669,54.4375,62.1727,61.843,47.4749,61.1001,45.3279,52.6137,66.0994,72.4831,65.3418,85.0217,98.8194,112.1933,104.6249,119.7036,104.8243,110.0191,128.8331,136.2972,96.3809,124.105,128.3925,121.2461,114.4398,138.5582,127.1719,134.264,137.9522,129.3022,136.5124
11,2019-12-29T09:00:00,222.1945,237.2641,214.3869,140.7456,0,154.8544,237.1115,239.5999,219.0234,158.0359,243.8969,230.8156,232.2385,220.9486,236.2578,194.8543,233.4567,247.8476,258.7258,251.4065,256.9976,282.7078,280.974,283.6011,279.981,274.5023,273.4837,285.0059,282.7225,272.6928,281.39799999999997,285.4437,286.1382,283.9308,285.3209,278.7583,290.1728,295.5529,303.8318,309.1947
12,2019-12-29T10:00:00,267.3256,278.9641,270.4618,221.5188,0,270.9474,269.9221,267.4988,270.8542,222.0054,269.5815,273.9249,270.619,278.8676,273.9097,233.2853,278.0372,282.5821,288.3828,273.132,300.8028,303.7057,300.4159,304.2874,297.3165,294.0807,295.5513,302.0206,296.7313,293.6756,298.8245,294.9544,305.3226,303.9856,300.8237,291.9327,309.0022,316.1726,322.2057,322.3593
13,2019-12-29T11:00:00,235.9375,245.1031,240.024,220.4229,0,238.4911,242.2731,231.399,234.7302,221.6369,236.6522,240.7464,237.4019,243.8965,240.6496,217.924,246.5749,254.69799999999998,253.8891,231.5006,271.1747,272.1472,265.1569,266.5158,267.6147,261.3001,265.7844,269.6432,264.8627,265.4776,270.1048,265.5563,271.1352,269.3473,270.3866,263.4048,279.9845,286.4994,296.9981,289.4006
14,2019-12-29T12:00:00,233.1171,239.812,234.5951,221.7274,0,234.8984,235.1251,228.3429,231.0686,214.2283,236.1685,234.4892,234.2888,241.3863,238.6579,215.5113,240.6034,243.0421,243.4222,224.28799999999998,265.0137,266.6441,262.7689,265.2144,259.7905,259.0233,261.8294,265.492,263.8871,259.0498,261.6164,264.0602,266.3615,263.6033,262.1758,257.3955,270.0634,276.6157,281.2945,281.8774
15,2019-12-29T13:00:00,242.7478,247.8684,241.8254,197.7126,0,242.9272,242.8674,236.2087,239.3076,192.29,244.5491,242.2824,241.6245,247.9574,246.9835,197.3482,248.6777,248.2352,250.9835,242.6075,269.9135,269.7719,265.4808,267.9546,261.8752,260.8504,261.5966,264.7303,263.893,259.4326,262.2786,263.8763,265.8957,264.1106,264.5982,259.4489,271.4224,274.2816,276.9198,279.7947
16,2019-12-29T14:00:00,240.6974,247.9436,240.4817,208.517,0,241.6632,242.9769,234.7987,238.93099999999998,202.9739,244.0269,241.7428,241.4283,248.5274,248.5973,214.2511,251.2531,251.19,252.3785,252.1556,265.7198,266.6042,260.9496,261.3695,257.2185,255.2587,255.1954,257.9241,256.41200000000003,253.46900000000002,257.0837,258.3871,260.3203,258.3055,260.01099999999997,257.1577,269.769,272.8665,274.4658,277.7278
17,2019-12-29T15:00:00,160.8375,172.7515,165.6418,165.0864,0,165.3893,166.9558,149.3857,160.9626,156.0805,167.0932,168.6958,162.2852,173.1561,174.7565,161.7758,177.696,151.1198,141.7684,162.8435,175.5133,169.6499,173.2406,171.1711,173.9068,161.74,168.5876,172.27599999999998,175.9174,163.1686,162.8566,172.1873,181.1515,165.6905,168.7486,165.8327,184.61,180.1139,171.2646,171.6259
18,2019-12-29T16:00:00,5.9582,18.9156,12.697000000000001,16.7073,0,12.0822,11.2204,5.6313,14.1793,12.1149,12.7163,2.1835,13.7208,8.3833,13.7031,2.0082,7.0629,6.4752,9.1684,9.0215,24.9177,15.8076,8.1408,19.2504,16.5477,2.5863,18.6827,14.5998,13.823,2.3051,5.773,5.3348,7.7758,8.0491,9.0424,7.8255,14.3698,6.3601,7.3066,5.0365
19,2019-12-30T07:00:00,13.6073,24.6837,21.6539,29.3374,0,21.6827,33.3627,16.7678,20.9802,23.2479,20.3363,13.6169,25.5734,20.5069,26.9556,11.3424,21.0881,20.6635,22.6781,21.7941,27.9804,32.2027,5.9583,27.593000000000004,33.1873,15.3154,34.6785,39.7833,33.3958,17.6478,19.9389,30.8133,26.1522,26.2892,38.2094,36.6323,38.6229,31.8634,12.647,35.2699
20,2019-12-30T08:00:00,148.3216,150.6106,152.157,167.5519,0,156.9592,172.1975,153.7446,153.2177,153.0098,157.7608,155.8879,163.481,152.6454,160.4193,156.2646,151.8745,161.1539,174.3711,158.7363,177.2021,170.9302,167.1154,155.8025,170.7267,156.5688,177.4162,177.5188,175.8274,158.6181,164.5487,175.24400000000003,176.6921,169.7992,179.7466,174.7534,189.8788,187.7915,168.5137,200.3414
21,2019-12-30T09:00:00,245.4952,251.7643,244.7873,206.9282,0,248.8504,248.5619,242.4811,245.847,205.8038,248.9605,247.9769,248.5391,255.0496,254.5447,223.2564,256.6309,258.0781,259.5837,261.8385,273.8565,274.3733,269.8222,272.1311,266.0249,264.8491,265.4146,269.6011,268.5048,264.0652,268.6619,271.5888,275.2596,273.173,273.7144,268.1176,278.8082,283.0701,285.7913,289.4667
22,2019-12-30T10:00:00,240.3483,246.0611,240.7469,192.0591,0,242.7337,243.1662,235.977,240.7643,190.8632,244.81400000000002,242.5325,242.5369,245.7845,247.4212,210.1622,251.372,250.43099999999998,252.2372,245.9533,266.0467,266.2811,264.8257,265.5447,259.4601,259.9183,259.8956,264.59,264.6462,259.5122,265.4418,267.9644,268.4924,266.4373,266.737,259.31,272.5634,274.825,278.5853,280.7141
23,2019-12-30T11:00:00,231.1846,237.7675,232.343,213.4908,0,233.71099999999998,232.9481,226.5685,230.1952,215.3629,234.8278,233.0406,232.4777,238.4438,237.1714,218.2017,236.1257,236.5082,236.1671,226.9483,254.1755,256.8591,255.6433,258.5245,254.4709,254.1744,255.3322,259.4032,257.967,253.32,259.9024,261.3469,262.0694,259.7522,257.7649,252.1872,262.1613,265.4526,268.3585,270.1665
24,2019-12-30T12:00:00,228.6817,235.9129,229.5448,219.4731,0,231.4064,231.6178,223.5231,227.11599999999999,213.6747,232.8251,230.0916,229.6648,235.5923,233.8924,216.1541,231.5996,230.24599999999998,228.5934,222.9933,255.9085,257.2657,253.6241,257.9193,253.1135,251.0616,254.3746,258.6048,256.4673,252.1707,254.8001,257.0073,260.3107,257.2573,256.5072,250.4772,257.9644,257.873,259.6916,263.4937
25,2019-12-30T13:00:00,237.9212,242.9504,236.0631,193.1778,0,239.1734,238.8778,232.2265,236.0223,189.8721,239.8744,237.7908,236.0744,242.2019,241.7283,195.0291,242.6192,240.8038,241.3951,239.8237,263.0874,260.9019,257.0992,260.9102,254.7458,252.9533,254.9942,258.3201,257.3127,252.6786,254.7293,256.0677,260.6087,258.4484,258.9496,253.1318,262.0995,262.3409,264.8775,268.1096
26,2019-12-30T14:00:00,240.4253,246.3608,238.7311,208.5511,0,241.359,241.5417,234.8202,238.926,199.5229,242.2696,240.9461,240.1504,245.957,246.4922,211.8939,248.7671,249.1077,249.1847,251.2181,260.7381,260.6814,256.7549,258.5305,252.8328,251.6037,252.0171,255.2847,254.993,250.9847,253.4,255.563,258.4419,257.4509,258.9113,254.6958,264.2762,266.1651,268.1219,270.9182
27,2019-12-30T15:00:00,168.3562,174.3796,161.7638,166.2911,0,161.6825,159.6553,163.44899999999998,166.17,162.6968,165.7918,160.6887,164.2226,172.5665,177.287,164.2469,171.833,156.7412,145.2372,169.8785,176.2466,178.9666,175.0161,174.5031,167.4453,171.2081,167.423,177.6385,177.435,170.5013,162.4249,173.7563,192.6263,164.9891,168.8654,174.0118,192.0191,169.4643,166.0154,179.8456
28,2019-12-30T16:00:00,9.5923,21.0382,10.0136,19.0404,0,17.398,8.6458,6.3421,13.9663,8.3424,18.6773,2.46,13.3912,8.8577,13.8061,2.4984,6.0998,6.5659,8.0763,7.9858,21.0107,24.6922,5.792999999999999,17.1753,13.7006,5.5688,15.1438,13.7605,15.4213,1.8942,4.8189,5.8535,7.5131,7.5867,8.0556,7.6367,10.9836,4.9916,5.0427,4.3022
29,2019-12-31T07:00:00,13.8072,33.593,20.7484,17.4072,0,27.4277,37.0352,16.8109,21.7759,18.5784,21.256,13.617,25.024,24.4949,27.3721,11.0577,18.4234,16.166,18.5205,24.2648,19.6784,32.1482,5.5103,27.5989,33.6378,15.8424,31.4481,39.7831,34.0702,17.4014,19.5203,30.6694,26.7621,22.4759,41.6151,41.8858,25.563000000000002,33.1419,12.3316,35.2618
30,2019-12-31T08:00:00,152.6254,156.9431,150.6801,147.3053,0,159.912,159.884,159.7623,153.9487,145.5107,153.4187,146.2115,162.6102,158.1098,154.5576,152.6745,152.5145,157.7569,166.3742,165.2435,169.7748,170.9759,168.1291,156.401,170.6174,156.4499,176.30599999999998,176.5173,176.1218,157.4732,166.3734,172.0553,178.0719,171.1999,179.3594,159.433,178.5678,176.0327,165.6455,189.5054
31,2019-12-31T09:00:00,240.4394,247.0152,240.5848,203.1706,0,243.0422,243.31099999999998,238.2938,241.2785,205.2001,244.6127,242.7829,243.3698,248.4618,248.5391,222.1039,249.5239,250.61599999999999,251.3827,256.366,267.3418,267.8262,264.9298,266.765,261.7921,260.403,261.8965,265.4097,263.7046,259.8412,264.8957,266.2874,268.8717,267.9957,268.2925,261.2115,271.1571,272.6109,275.1024,277.4531
32,2019-12-31T10:00:00,233.9785,239.8343,234.1529,187.9386,0,236.0214,235.8571,231.0077,233.5391,188.3364,237.8264,235.8064,233.7868,239.053,238.5504,205.9666,237.8683,237.3741,238.3537,236.511,257.9525,258.7819,257.7036,258.5127,252.894,253.1615,253.3188,257.443,256.1024,252.6523,259.9003,260.1489,261.0569,257.8065,257.6811,251.5624,257.926,259.1666,260.4398,262.6828
33,2019-12-31T11:00:00,220.3542,225.7955,220.3975,206.1817,0,223.4778,222.9052,217.8936,219.4055,207.0059,224.21900000000002,222.3965,220.4563,225.3723,224.4367,209.4191,219.7525,219.3667,217.3707,216.2336,241.7617,241.6646,241.2466,241.3506,238.0483,239.1105,239.4776,243.0381,241.6824,238.90099999999998,246.1331,247.8727,249.0056,245.43099999999998,221.8901,234.6906,238.9756,238.2467,237.4672,241.3107
34,2019-12-31T12:00:00,216.9023,220.5327,214.7433,207.8129,0,217.7764,217.1513,211.3304,215.1761,204.3543,219.6065,217.0201,215.4815,221.1198,219.8583,207.0413,214.8757,214.9081,212.8691,213.4687,238.4532,236.6083,233.4064,234.7512,231.2104,230.9245,230.8681,235.3448,233.2214,229.4563,233.6433,235.9102,238.6893,238.0522,235.2717,226.8973,231.6562,230.4949,230.3688,232.9159
35,2019-12-31T13:00:00,223.919,228.9136,221.4768,183.3784,0,223.3639,224.3849,218.6514,221.5112,178.9037,224.8323,222.1646,221.187,225.7092,224.1839,181.8051,223.3191,223.6608,222.4156,225.3011,245.1883,244.045,239.5977,242.97299999999998,238.5912,235.6982,235.5745,238.9513,236.4157,232.3536,235.2899,236.6351,237.9355,236.6454,236.4361,229.8885,238.0229,237.2658,238.4016,241.2453
36,2019-12-31T14:00:00,229.6859,236.6131,231.8158,197.9577,0,230.4759,233.2318,228.4598,232.3428,199.1046,234.77,230.4589,230.828,235.5446,235.8756,205.1411,236.7246,234.8398,233.4175,236.9508,252.7675,253.0806,247.9934,249.5194,245.7459,244.2309,241.1025,244.1484,244.8918,242.0126,244.4371,246.2092,247.3103,245.1339,246.5069,239.6656,249.3561,250.5043,249.9933,251.2778
37,2019-12-31T15:00:00,135.3984,129.8065,129.0235,155.3048,0,133.8365,137.2876,127.7562,137.2817,136.7031,121.4771,127.2367,123.6235,132.9473,137.582,120.8936,124.2922,97.9807,130.5768,131.0256,150.6651,145.178,131.1576,144.252,135.8809,127.22200000000001,122.0059,125.5503,138.7925,119.8706,133.4536,131.2277,133.4859,126.5078,136.1447,128.7844,138.1534,152.6675,127.9353,139.6812
38,2019-12-31T16:00:00,2.2301,7.8346,5.853,9.8456,0,5.8192,6.2065,3.3431,6.6543,4.8902,5.8731,0.7624,7.225,4.6829,7.3733,0.9227,4.5913,5.1182,6.3697,6.4698,6.4896,6.5641,1.1531,5.3431,5.7944,2.311,3.8705,5.4298,5.3131,1.3695,2.5471,3.168,4.0997,4.0036,5.4757,5.4904,8.5006,5.9655,4.9016,3.5445
39,2020-01-01T07:00:00,1.6314,6.3475,6.4151,9.1763,0,8.1263,7.4229,3.4783,8.8977,4.476,6.0068,1.0989,8.7174,4.2939,6.9965,0.6408,5.2133,7.3477,7.3585,6.7023,8.1779,4.8797,2.873,9.9404,3.9202,2.3377,4.1549,3.8358,5.7529,0.8862,3.5306,3.5398,5.7835,5.225,5.3674,9.3367,6.6439,3.9315,2.9684,3.8863
40,2020-01-01T08:00:00,33.4426,30.0803,31.3408,32.4094,0,25.631999999999998,38.2223,27.6184,26.2156,39.604,25.226999999999997,33.3011,30.0331,32.5192,32.0472,34.8816,24.256,23.9664,25.4564,27.5001,33.3293,27.5469,22.4673,32.4405,24.7971,32.4616,26.4342,36.8156,39.848,30.7195,30.5969,28.421999999999997,29.724,25.6833,35.0246,22.8833,28.1319,25.0924,36.0141,37.544000000000004
41,2020-01-01T09:00:00,169.2526,174.2912,141.5231,143.6324,0,143.3275,141.7091,149.7965,159.3829,145.8394,153.4286,155.2269,155.3284,158.2612,147.3559,139.2947,180.1156,174.19799999999998,140.775,150.858,179.1822,163.2458,175.7732,189.4408,164.8891,141.6751,169.2094,156.7106,179.1506,156.1327,179.1039,173.6908,150.8896,157.0954,171.5865,169.2099,155.3588,161.7512,201.5662,185.1778
42,2020-01-01T10:00:00,67.4066,54.3337,60.9442,59.1459,0,58.4506,61.5665,65.2768,59.07899999999999,56.5598,62.0941,59.0567,66.4119,61.7839,70.484,58.2124,57.2076,71.1868,63.5028,68.4168,63.2518,66.765,79.7113,56.12,73.0419,61.7655,80.7505,64.5338,59.6103,85.3468,64.9118,84.9633,76.5778,61.2416,71.5767,54.7136,68.3487,66.0653,70.2488,56.5138
43,2020-01-01T11:00:00,47.4868,52.328,50.1717,51.6628,0,48.7931,50.6481,46.8605,52.6031,49.4646,49.4617,49.1526,50.19,54.3486,51.5076,48.3959,49.3737,48.4924,51.2292,49.8054,52.7475,54.4932,51.5287,57.4594,56.3548,46.9054,55.2133,51.3934,54.0019,51.3761,54.4374,48.5322,54.5773,55.4379,53.0874,50.8236,57.1558,51.5269,51.1441,48.7076
44,2020-01-01T12:00:00,58.7623,55.8022,51.3222,56.9949,0,57.4475,55.4424,56.1562,58.831,55.9432,55.2307,57.705,51.3514,55.8244,55.8487,54.5481,54.3234,55.9552,55.1902,57.8704,56.9002,62.9719,54.3474,64.449,52.4187,55.7924,59.1089,60.2771,56.8381,54.5558,61.8641,65.3,64.5055,60.5832,62.006,60.6215,58.9628,57.6461,56.3234,54.9027
45,2020-01-01T13:00:00,160.2721,160.5688,151.804,138.923,0,162.7744,152.3732,148.7889,152.0746,128.2851,163.912,151.6941,154.2557,149.4462,153.1495,130.7227,169.2044,165.6004,150.158,155.4238,152.3241,154.7153,179.4978,168.0665,186.9062,163.6748,168.4667,175.003,141.5104,155.6179,185.0165,163.9418,168.5451,142.4841,169.78799999999998,161.0501,161.94799999999998,177.6882,161.6026,145.6214
46,2020-01-01T14:00:00,174.916,204.4156,200.2793,166.7316,0,192.0515,202.6987,200.8813,197.4669,165.8042,189.479,190.8042,194.7348,175.4727,209.1529,184.3338,197.0686,204.0827,178.4649,194.6659,209.2803,226.3654,199.274,188.9903,215.5951,200.3425,199.9506,209.9121,210.0047,211.04,221.7827,224.8218,184.4363,205.1985,206.1148,194.0642,197.6678,218.7987,213.9583,224.7564
47,2020-01-01T15:00:00,159.298,169.127,159.9958,159.59799999999998,0,162.7741,156.3708,153.2824,155.0489,159.47899999999998,162.7943,158.5572,162.0738,156.3849,163.3928,163.7701,164.4201,145.8905,137.8109,152.685,171.3443,180.5431,167.5914,168.8781,156.8198,169.0871,162.1557,175.6404,185.9072,160.0146,176.896,174.06900000000002,184.7245,148.7719,175.9967,171.4134,186.0675,169.6239,175.1516,171.5038
48,2020-01-01T16:00:00,2.6515,23.7577,9.3292,20.6799,0,13.8462,6.6391,13.4006,10.4663,9.7009,8.8066,1.2516,10.0695,4.526,13.4875,1.1054,9.0029,5.9635,5.6105,7.1875,27.521,23.7841,4.1742,12.9076,8.3116,14.5155,8.9397,21.1966,13.9322,1.4548,5.0989,15.5666,5.3405,8.212,9.4756,7.1307,7.4383,5.5633,4.3999,3.8464
49,2020-01-02T08:00:00,29.7888,31.3702,36.9222,45.5275,0,49.8516,36.4367,35.8714,43.2937,31.8185,33.228,43.9825,37.8452,39.723,33.2686,33.8198,43.2516,50.5389,35.5721,48.5225,35.2203,42.0326,36.6694,41.385,42.732,29.3543,33.7042,40.3744,51.0656,41.335,49.3995,34.3557,51.2158,32.0324,41.4997,34.7293,38.5353,38.0827,45.9442,38.8276
50,2020-01-02T09:00:00,233.8558,240.479,235.6818,202.1918,0,238.6293,239.6634,234.218,236.951,203.2167,238.4438,238.1234,237.3082,242.3087,241.6856,216.4206,239.6199,239.8305,240.3745,243.8587,259.0384,259.5587,256.3869,260.1973,255.2668,254.7051,255.0516,257.7084,257.2073,253.5643,256.4745,255.6591,259.079,259.0454,257.8546,252.1468,260.2192,261.0558,262.6865,264.17
51,2020-01-02T10:00:00,219.7688,224.3895,217.8652,179.815,0,221.3579,222.2355,218.1254,220.0966,180.0548,223.2782,220.9432,220.333,222.8358,224.0212,195.1049,222.1147,224.6769,222.1921,224.5153,242.6018,240.1929,240.9775,239.8274,234.21,233.9706,233.5445,237.842,236.7372,233.3149,238.7867,239.4668,238.1437,237.3244,238.7063,231.7249,238.5384,243.495,243.1582,246.5145
52,2020-01-02T11:00:00,197.4996,202.2236,196.6818,190.9554,0,199.6682,199.567,194.7407,197.7507,188.5225,201.4216,199.3535,197.0661,200.1715,200.9326,192.5222,200.1712,202.1517,200.4344,201.9014,217.3957,217.6943,216.4709,217.5616,214.5391,211.5062,212.3462,214.4613,212.8365,211.5366,214.3702,215.3351,215.8588,215.6784,215.5594,209.8796,217.3695,219.5345,220.2753,222.0035
53,2020-01-02T12:00:00,197.4512,202.3774,197.2513,197.7087,0,200.2831,200.1057,195.7244,197.4017,191.3158,200.9972,199.6285,197.2242,201.7097,199.9003,191.3184,199.5354,201.0533,199.2563,202.0554,215.5145,216.7905,215.3739,218.0741,214.3839,212.7381,213.0753,214.2757,213.1408,211.0234,213.6909,213.8156,215.2488,214.9311,215.1505,210.3889,217.3626,218.1488,219.7148,221.7902
54,2020-01-02T13:00:00,216.3277,221.5469,216.2693,184.0346,0,218.1197,217.2497,212.1682,216.5254,180.7727,219.7854,215.2742,217.2086,219.5574,219.2048,182.0755,218.4446,218.4337,217.3596,220.66,235.7749,234.3254,234.3173,238.6538,232.5448,230.4774,230.6211,235.0166,232.5587,228.3716,231.1793,232.1173,233.5281,232.9628,233.4759,228.8341,234.8639,237.4999,238.7942,238.2387
55,2020-01-02T14:00:00,217.9874,239.8391,212.9306,184.179,0,230.558,232.8902,224.7659,185.168,179.5227,231.1789,213.8789,191.3099,234.245,227.1569,191.7699,224.7766,195.4147,222.1915,234.4026,234.0574,236.6358,251.1128,234.0048,215.28400000000002,199.1805,242.15,225.9516,243.3267,217.00400000000002,240.2394,247.7225,227.0189,220.3325,211.2879,221.9628,251.3219,239.5969,231.5939,232.5582
56,2020-01-02T15:00:00,100.2339,156.1761,136.115,162.8943,0,157.8706,138.8744,147.3493,145.0217,146.4949,154.7846,112.5156,156.4945,130.8958,146.2695,106.4667,144.6699,129.4044,140.0641,160.5931,176.5611,170.6043,141.2578,166.5017,165.1679,135.0801,146.0121,151.8179,159.1619,159.0242,151.2647,171.4954,161.9716,152.7263,155.4421,171.7901,162.9482,143.6171,169.3012,145.7232
57,2020-01-02T16:00:00,5.8628,21.4772,20.0577,15.8012,0,14.7558,7.2013,7.9413,14.8694,14.7665,22.4711,3.9649,15.1857,7.5794,10.95,3.0281,4.6403,12.4121,6.8870000000000005,6.5756,21.4801,25.3199,10.4323,22.5005,25.8708,17.5814,21.9109,12.9712,15.2573,6.0559,12.5638,11.8482,5.1858,6.0456,8.3448,5.7961,8.7276,5.837999999999999,4.7342,4.2673
58,2020-01-03T07:00:00,12.8451,32.1711,20.15,29.1565,0,15.8539,23.1068,12.8264,15.7775,19.0057,14.5717,7.8693,28.4174,17.9919,24.723000000000003,6.2170000000000005,18.1139,13.9998,17.7314,16.8695,17.1227,29.4685,5.1266,25.1775,26.9628,14.6859,21.3568,29.281999999999996,30.1208,16.2342,18.355999999999998,28.8173,17.8865,24.0822,36.8919,41.9706,21.9142,30.3427,10.6586,20.8844
59,2020-01-03T08:00:00,158.356,155.7548,150.8639,151.62,0,144.3305,148.22299999999998,151.5763,151.6379,139.8372,145.5022,146.2127,159.1602,154.0697,141.6122,148.8295,153.513,152.2926,155.2748,148.3785,157.918,166.6326,165.1637,160.3408,168.3124,153.6543,152.8293,165.9316,172.9321,154.1262,162.3246,170.7227,163.9238,166.9069,173.0324,170.0813,165.3046,167.2859,158.2909,153.8875
60,2020-01-03T09:00:00,221.4371,228.2423,223.4567,192.0059,0,219.5216,225.6877,223.1572,226.563,197.1063,224.3988,222.7635,228.0335,230.4398,226.4982,207.8088,227.8705,226.2982,226.9789,234.9195,246.8491,250.1601,241.8251,249.5948,241.146,239.4858,246.4819,241.7727,246.1141,240.8389,245.9305,237.7357,250.4446,246.0994,243.7207,237.2248,248.5311,249.3188,250.1454,250.2979
61,2020-01-03T10:00:00,204.5516,210.1832,204.7712,168.0336,0,209.9202,211.5425,206.8452,204.9526,169.5631,210.1768,206.75799999999998,204.812,206.8901,211.408,184.5763,212.9491,209.7621,210.003,217.1559,219.5075,222.4577,222.1766,220.252,221.6842,218.9546,222.4304,217.9452,224.27900000000002,223.5344,223.7934,218.9363,223.4332,221.6387,225.5117,217.7813,226.8747,224.9889,219.4976,226.1937
62,2020-01-03T11:00:00,199.5484,206.3777,199.2292,193.4619,0,203.2686,204.5445,198.9712,201.553,192.9129,205.0141,200.5429,200.7702,205.5016,205.0915,195.8778,203.7145,205.6538,204.4992,204.8063,216.6768,220.0185,218.8549,221.0678,216.5106,214.9063,215.9028,217.0784,215.0125,213.8458,215.9271,216.7564,219.5038,217.7377,217.8962,212.0006,220.05700000000002,221.9732,221.7321,225.6499
63,2020-01-03T12:00:00,199.2685,204.9073,200.4241,198.2943,0,201.31799999999998,201.3998,198.416,199.5186,194.8162,204.9422,202.3927,200.4044,204.2958,203.3688,193.7468,203.2606,203.8782,203.4382,204.8794,218.5069,218.6087,216.7787,219.8773,215.3599,213.7671,213.5531,215.7577,213.0147,209.69799999999998,214.8023,215.4097,216.2046,214.2609,213.685,210.5087,215.485,218.4545,221.1554,223.4213
64,2020-01-03T13:00:00,215.8803,221.2026,216.0705,181.7876,0,217.9416,217.6269,212.72299999999998,214.8834,179.688,219.94299999999998,216.6546,215.7146,218.6244,217.0559,178.1646,219.2159,219.2392,217.7536,220.4304,234.6097,235.3942,233.2214,235.285,232.2392,230.4822,229.3838,231.2242,229.2436,227.2456,229.7702,229.3791,230.7542,229.9362,230.6756,224.7142,233.7943,234.1281,237.8913,239.0348